Date String (YYYY-MM-DD hh:mm:ss) UTC,Instrument flags,Ambient pressure (hPa),Sample flow (lpm),Bypass flow (lpm),Sample temperature (°C),Ambient temperature (°C),ASC tube jacket temperature (°C),LED temperature (°C),Box temperature (°C),Sample RH (%),Span deviation,Mass concentration (μg/m³),Mass concentration (μg/m³),Mass concentration (μg/m³)
DateTimeUTC,F1_M11,P_M11,Q1_M11,Q2_M11,T1_M11,T2_M11,T3_M11,T4_M11,T5_M11,U1_M11,ZSPAN_M11,X2_M11,X0_M11,X1_M11
2022-10-22 11:00:00,,0813.4,5.01,0.00,28.0,26.3,00.0,36.9,29.8,08.8,0000.0,0007.43,0010.36,0007.05
2022-10-22 11:01:00,,0813.3,5.01,0.00,28.0,26.3,00.0,36.9,29.8,08.8,0000.0,0007.55,0010.40,0007.19
2022-10-22 11:02:00,,0813.3,5.00,0.00,28.0,26.4,00.0,36.9,29.8,08.8,0000.0,0007.62,0011.14,0007.27
2022-10-22 11:03:00,,0813.4,4.99,0.00,28.0,26.4,00.0,36.9,29.8,08.9,0000.0,0007.73,0011.60,0007.38
2022-10-22 11:04:00,,0813.5,5.02,0.00,28.0,26.3,00.0,36.9,29.8,08.9,0000.0,0007.86,0012.30,0007.50
2022-10-22 11:05:00,,0813.4,4.99,0.00,28.0,26.4,00.0,36.9,29.8,08.9,0000.0,0007.95,0012.60,0007.58
2022-10-22 11:06:00,,0813.5,4.99,0.00,28.0,26.4,00.0,36.9,29.8,08.8,0000.0,0008.08,0012.72,0007.71
2022-10-22 11:07:00,,0813.5,5.01,0.00,28.0,26.4,00.0,36.9,29.8,08.8,0000.0,0008.15,0012.59,0007.80
2022-10-22 11:08:00,,0813.5,5.00,0.00,28.0,26.4,00.0,36.9,29.8,08.9,0000.0,0008.20,0012.54,0007.84
2022-10-22 11:09:00,,0813.5,4.98,0.00,28.0,26.4,00.0,36.9,29.8,08.9,0000.0,0008.23,0012.58,0007.86
2022-10-22 11:10:00,,0813.3,4.99,0.00,28.0,26.4,00.0,36.9,29.8,08.8,0000.0,0008.23,0012.54,0007.88
2022-10-22 11:11:00,,0813.5,5.02,0.00,28.0,26.4,00.0,36.9,29.8,08.9,0000.0,0008.30,0012.66,0007.91
2022-10-22 11:12:00,,0813.4,4.99,0.00,28.0,26.4,00.0,36.9,29.8,08.9,0000.0,0008.35,0012.69,0007.95
2022-10-22 11:13:00,,0813.4,4.99,0.00,28.0,26.4,00.0,36.9,29.8,09.0,0000.0,0008.32,0011.99,0007.92
2022-10-22 11:14:00,,0813.4,5.01,0.00,28.0,26.4,00.0,36.9,29.8,09.1,0000.0,0008.25,0011.75,0007.86
2022-10-22 11:15:00,,0813.5,5.00,0.00,28.0,26.4,00.0,36.9,29.8,09.1,0000.0,0008.15,0011.85,0007.78
2022-10-22 11:16:00,,0813.3,4.99,0.00,28.0,26.4,00.0,36.9,29.8,09.1,0000.0,0008.07,0011.56,0007.70
2022-10-22 11:17:00,,0813.3,4.99,0.00,28.0,26.4,00.0,36.9,29.8,09.0,0000.0,0007.94,0011.45,0007.56
2022-10-22 11:18:00,,0813.3,5.02,0.00,28.0,26.4,00.0,36.9,29.8,08.9,0000.0,0007.79,0011.29,0007.42
2022-10-22 11:19:00,,0813.3,5.01,0.00,28.0,26.4,00.0,36.9,29.8,08.9,0000.0,0007.67,0011.13,0007.33
2022-10-22 11:20:00,,0813.3,4.99,0.00,28.0,26.3,00.0,36.9,29.7,08.9,0000.0,0007.57,0011.00,0007.24
2022-10-22 11:21:00,,0813.3,5.00,0.00,28.0,26.4,00.0,36.9,29.8,08.9,0000.0,0007.45,0010.89,0007.10
2022-10-22 11:22:00,,0813.3,5.01,0.00,28.0,26.4,00.0,36.9,29.8,09.0,0000.0,0007.29,0010.67,0006.94
2022-10-22 11:23:00,,0813.4,4.99,0.00,28.0,26.4,00.0,36.9,29.9,09.1,0000.0,0007.11,0010.78,0006.76
2022-10-22 11:24:00,,0813.4,5.00,0.00,28.0,26.4,00.0,36.9,29.8,09.1,0000.0,0007.01,0010.68,0006.64
2022-10-22 11:25:00,,0813.4,5.02,0.00,28.0,26.4,00.0,36.9,29.8,09.1,0000.0,0006.94,0011.43,0006.56
2022-10-22 11:26:00,,0813.4,4.99,0.00,28.0,26.4,00.0,36.9,29.8,09.1,0000.0,0006.86,0011.83,0006.48
2022-10-22 11:27:00,,0813.5,4.99,0.00,28.0,26.4,00.0,36.9,29.8,09.1,0000.0,0006.81,0011.99,0006.42
2022-10-22 11:28:00,,0813.6,5.02,0.00,28.0,26.4,00.0,36.9,29.8,09.1,0000.0,0006.75,0012.00,0006.39
2022-10-22 11:29:00,,0813.5,4.99,0.00,28.0,26.4,00.0,36.9,29.9,09.0,0000.0,0006.82,0012.22,0006.44
2022-10-22 11:30:00,,0813.6,4.99,0.00,28.0,26.4,00.0,36.9,29.9,09.0,0000.0,0006.90,0013.39,0006.48
2022-10-22 11:31:00,,0813.6,5.02,0.00,28.0,26.5,00.0,36.9,29.9,09.0,0000.0,0006.96,0013.53,0006.53
2022-10-22 11:32:00,,0813.6,4.99,0.00,28.0,26.5,00.0,36.9,29.9,08.9,0000.0,0006.99,0013.50,0006.60
2022-10-22 11:33:00,,0813.5,5.00,0.00,28.0,26.5,00.0,36.9,29.9,08.9,0000.0,0007.07,0013.72,0006.69
2022-10-22 11:34:00,,0813.6,5.00,0.00,28.0,26.6,00.0,36.9,29.9,08.8,0000.0,0007.16,0014.23,0006.79
2022-10-22 11:35:00,,0813.6,5.02,0.00,28.0,26.6,00.0,36.9,30.0,08.8,0000.0,0007.23,0014.31,0006.87
2022-10-22 11:36:00,,0813.6,4.98,0.00,28.1,26.7,00.0,36.9,30.0,08.8,0000.0,0007.32,0013.53,0006.96
2022-10-22 11:37:00,,0813.6,4.99,0.00,28.1,26.7,00.0,36.9,30.0,08.8,0000.0,0007.41,0012.84,0007.05
2022-10-22 11:38:00,,0813.6,5.02,0.00,28.1,26.7,00.0,36.9,30.0,08.8,0000.0,0007.45,0012.88,0007.09
2022-10-22 11:39:00,,0813.5,4.99,0.00,28.1,26.7,00.0,36.9,30.0,08.8,0000.0,0007.46,0012.80,0007.11
2022-10-22 11:40:00,,0813.5,4.99,0.00,28.1,26.7,00.0,36.9,30.0,08.7,0000.0,0007.46,0013.29,0007.09
2022-10-22 11:41:00,,0813.5,5.00,0.00,28.1,26.7,00.0,36.9,30.0,08.8,0000.0,0007.36,0012.52,0007.01
2022-10-22 11:42:00,,0813.5,5.02,0.00,28.1,26.7,00.0,36.9,30.0,08.8,0000.0,0007.22,0012.36,0006.87
2022-10-22 11:43:00,,0813.6,4.99,0.00,28.1,26.7,00.0,36.9,30.0,08.7,0000.0,0007.14,0012.50,0006.77
2022-10-22 11:44:00,,0813.6,4.99,0.00,28.1,26.7,00.0,36.9,30.0,08.7,0000.0,0007.06,0013.08,0006.68
2022-10-22 11:45:00,,0813.5,5.01,0.00,28.1,26.7,00.0,36.9,30.1,08.7,0000.0,0006.99,0012.23,0006.60
2022-10-22 11:46:00,,0813.6,5.00,0.00,28.1,26.7,00.0,36.9,30.0,08.7,0000.0,0006.89,0012.63,0006.49
2022-10-22 11:47:00,,0813.6,5.00,0.00,28.1,26.7,00.0,36.9,30.0,08.8,0000.0,0006.74,0012.57,0006.37
2022-10-22 11:48:00,,0813.6,4.99,0.00,28.1,26.7,00.0,37.0,30.0,08.8,0000.0,0006.60,0012.10,0006.23
2022-10-22 11:49:00,,0813.5,5.00,0.00,28.2,26.7,00.0,37.0,30.1,08.8,0000.0,0006.44,0011.94,0006.09
2022-10-22 11:50:00,,0813.5,5.00,0.00,28.2,26.7,00.0,37.0,30.1,08.9,0000.0,0006.27,0012.20,0005.89
2022-10-22 11:51:00,,0813.5,4.99,0.00,28.2,26.7,00.0,37.0,30.0,09.0,0000.0,0005.98,0011.44,0005.61
2022-10-22 11:52:00,,0813.5,5.00,0.00,28.2,26.6,00.0,37.0,29.9,08.9,0000.0,0005.79,0010.91,0005.40
2022-10-22 11:53:00,,0813.5,4.99,0.00,28.1,26.6,00.0,37.0,30.0,09.0,0000.0,0005.62,0010.87,0005.19
2022-10-22 11:54:00,,0813.5,4.99,0.00,28.1,26.6,00.0,37.0,30.0,09.0,0000.0,0005.45,0010.64,0004.98
2022-10-22 11:55:00,,0813.5,5.02,0.00,28.1,26.6,00.0,37.0,30.0,09.0,0000.0,0005.23,0010.02,0004.75
2022-10-22 11:56:00,,0813.5,4.98,0.00,28.1,26.6,00.0,37.0,29.9,09.0,0000.0,0004.97,0010.35,0004.51
2022-10-22 11:57:00,,0813.4,5.01,0.00,28.1,26.6,00.0,37.0,29.9,09.1,0000.0,0004.71,0009.83,0004.27
2022-10-22 11:58:00,,0813.5,4.99,0.00,28.1,26.6,00.0,37.0,29.9,09.1,0000.0,0004.53,0009.40,0004.08
2022-10-22 11:59:00,,0813.5,4.99,0.00,28.1,26.6,00.0,37.0,29.9,09.1,0000.0,0004.34,0009.60,0003.87
